K0SNA Weather Reports


Display with metric or nautical units.
time (UTC)temp
F
wind
direction
speed
MPH
gust
MPH
rain 1hr
in
rain 24hr
in
rain mn
in
humidity
%
barometer
mb
20260510114945 42 195 0.0 0.0 0.00 0.00 0.00 73 1019.3
20260510114442 41 202 0.0 1.0 0.00 0.00 0.00 73 1019.3
20260510113938 41 202 0.0 0.0 0.00 0.00 0.00 75 1019.3
20260510113433 40 202 0.0 0.0 0.00 0.00 0.00 76 1019.2
20260510112931 40 198 0.0 0.0 0.00 0.00 0.00 77 1018.9
20260510112428 40 198 0.0 0.0 0.00 0.00 0.00 78 1018.9
20260510111924 39 198 0.0 0.0 0.00 0.00 0.00 78 1018.9
20260510111420 39 198 0.0 0.0 0.00 0.00 0.00 78 1018.8
20260510110916 39 198 0.0 0.0 0.00 0.00 0.00 78 1018.7
20260510110412 39 199 0.0 0.0 0.00 0.00 0.00 79 1018.7
20260510105908 39 197 0.0 0.0 0.00 0.00 0.00 78 1018.7
20260510105403 39 200 0.0 1.0 0.00 0.00 0.00 78 1018.5
20260510104859 39 198 0.0 0.0 0.00 0.00 0.00 78 1018.5
20260510104356 39 198 0.0 0.0 0.00 0.00 0.00 78 1018.4
20260510103852 39 202 0.0 0.0 0.00 0.00 0.00 78 1018.5
20260510103350 39 198 0.0 1.0 0.00 0.00 0.00 78 1018.2
20260510102845 39 200 1.0 1.0 0.00 0.00 0.00 77 1018.2
20260510102341 38 209 1.0 1.0 0.00 0.00 0.00 77 1018.3
20260510101838 38 205 1.0 1.0 0.00 0.00 0.00 78 1018.2
20260510101336 38 209 1.0 1.0 0.00 0.00 0.00 79 1018.3
20260510100832 38 204 1.0 1.0 0.00 0.00 0.00 79 1018.0
20260510100330 38 200 0.0 0.0 0.00 0.00 0.00 79 1018.0
20260510095826 38 196 0.0 0.0 0.00 0.00 0.00 79 1017.8
20260510095320 38 199 0.0 0.0 0.00 0.00 0.00 78 1017.8
20260510094815 38 201 0.0 0.0 0.00 0.00 0.00 78 1017.8
20260510094310 39 199 0.0 0.0 0.00 0.00 0.00 76 1017.4
20260510093807 40 204 0.0 0.0 0.00 0.00 0.00 73 1017.5
20260510093303 41 204 0.0 1.0 0.00 0.00 0.00 72 1017.4
20260510092800 40 202 0.0 0.0 0.00 0.00 0.00 73 1017.3
20260510092255 41 202 0.0 0.0 0.00 0.00 0.00 71 1017.3
20260510091751 42 203 0.0 1.0 0.00 0.00 0.00 69 1017.3
20260510091249 41 205 1.0 1.0 0.00 0.00 0.00 70 1017.3
20260510090745 41 214 0.0 1.0 0.00 0.00 0.00 71 1017.3
20260510090242 41 210 1.0 1.0 0.00 0.00 0.00 72 1017.1
20260510085737 41 206 0.0 0.0 0.00 0.00 0.00 72 1017.1
20260510085232 41 206 0.0 0.0 0.00 0.00 0.00 71 1017.1
20260510084728 41 208 0.0 1.0 0.00 0.00 0.00 71 1017.1
20260510084225 40 206 1.0 1.0 0.00 0.00 0.00 72 1017.1
20260510083721 40 211 1.0 1.0 0.00 0.00 0.00 72 1016.8
20260510083219 40 211 0.0 0.0 0.00 0.00 0.00 73 1016.9
20260510082714 39 208 0.0 0.0 0.00 0.00 0.00 73 1016.8
20260510082212 40 202 0.0 0.0 0.00 0.00 0.00 73 1016.9
20260510081710 40 203 0.0 0.0 0.00 0.00 0.00 72 1016.7
20260510081207 40 203 0.0 0.0 0.00 0.00 0.00 71 1016.7
20260510080701 40 204 0.0 0.0 0.00 0.00 0.00 72 1016.6
20260510080158 40 203 0.0 0.0 0.00 0.00 0.00 72 1016.4
20260510075654 40 203 0.0 0.0 0.00 0.00 0.00 72 1016.4
20260510075153 40 205 0.0 0.0 0.00 0.00 0.00 71 1016.4
20260510074649 41 205 0.0 0.0 0.00 0.00 0.00 70 1016.3
20260510074145 41 205 0.0 0.0 0.00 0.00 0.00 70 1016.4
20260510073642 41 206 0.0 0.0 0.00 0.00 0.00 71 1016.3
20260510073138 41 205 0.0 0.0 0.00 0.00 0.00 70 1016.4
20260510072634 41 204 0.0 0.0 0.00 0.00 0.00 69 1016.5
20260510072131 41 203 0.0 0.0 0.00 0.00 0.00 69 1016.4
20260510071626 41 202 0.0 0.0 0.00 0.00 0.00 68 1016.6
20260510071124 41 202 0.0 0.0 0.00 0.00 0.00 68 1016.4
20260510070622 41 202 0.0 0.0 0.00 0.00 0.00 67 1016.4
20260510070119 42 202 0.0 0.0 0.00 0.00 0.00 66 1016.5
20260510065615 42 202 0.0 0.0 0.00 0.00 0.00 65 1016.5
20260510065111 43 202 0.0 0.0 0.00 0.00 0.00 64 1016.3
20260510064607 43 205 0.0 1.0 0.00 0.00 0.00 63 1016.5
20260510064104 43 206 1.0 1.0 0.00 0.00 0.00 62 1016.4
20260510063601 43 199 0.0 0.0 0.00 0.00 0.00 61 1016.3
20260510063058 43 198 0.0 0.0 0.00 0.00 0.00 60 1016.4
20260510062554 43 198 0.0 0.0 0.00 0.00 0.00 61 1016.2
20260510062049 44 198 0.0 0.0 0.00 0.00 0.00 60 1016.2
20260510061546 44 198 0.0 0.0 0.00 0.00 0.00 58 1016.3
20260510061043 44 198 0.0 0.0 0.00 0.00 0.00 60 1016.3
20260510060539 44 198 0.0 0.0 0.00 0.00 0.00 60 1016.5
20260510060035 43 198 0.0 0.0 0.00 0.00 0.00 59 1016.5
20260510055531 44 198 0.0 0.0 0.00 0.00 0.00 59 1016.4
20260510055030 44 198 0.0 0.0 0.00 0.00 0.00 57 1016.2
20260510054525 44 198 0.0 0.0 0.00 0.00 0.00 57 1016.2
20260510054020 44 198 0.0 0.0 0.00 0.00 0.00 56 1016.2
20260510053515 44 198 0.0 0.0 0.00 0.00 0.00 55 1016.0
20260510053013 45 198 0.0 0.0 0.00 0.00 0.00 54 1016.1
20260510052509 45 198 0.0 0.0 0.00 0.00 0.00 53 1016.0
20260510052005 46 198 0.0 0.0 0.00 0.00 0.00 52 1016.0
20260510051500 46 199 0.0 0.0 0.00 0.00 0.00 51 1015.8
20260510050957 47 198 0.0 0.0 0.00 0.00 0.00 50 1015.7
20260510050454 47 198 0.0 0.0 0.00 0.00 0.00 49 1015.7
20260510045951 48 202 0.0 0.0 0.00 0.00 0.00 48 1015.9
20260510045449 48 202 0.0 0.0 0.00 0.00 0.00 46 1015.9
20260510044945 49 202 0.0 0.0 0.00 0.00 0.00 46 1015.8
20260510044442 50 202 0.0 1.0 0.00 0.00 0.00 44 1016.0
20260510043939 50 204 0.0 0.0 0.00 0.00 0.00 43 1016.0
20260510043434 51 210 1.0 2.0 0.00 0.00 0.00 41 1015.8
20260510042933 51 207 1.0 2.0 0.00 0.00 0.00 41 1015.8
20260510042429 51 221 1.0 3.0 0.00 0.00 0.00 40 1015.9
20260510041924 51 266 2.0 3.0 0.00 0.00 0.00 40 1015.8
20260510041422 52 312 4.0 5.0 0.00 0.00 0.00 39 1015.6
20260510040919 52 293 3.0 8.0 0.00 0.00 0.00 39 1015.6
20260510040416 52 265 3.0 5.0 0.00 0.00 0.00 40 1015.4
20260510035911 52 214 2.0 3.0 0.00 0.00 0.00 39 1015.4
20260510035408 52 252 2.0 3.0 0.00 0.00 0.00 39 1015.4
20260510034903 52 320 3.0 3.0 0.00 0.00 0.00 39 1015.4
20260510034402 52 215 2.0 3.0 0.00 0.00 0.00 39 1015.3
20260510033857 52 213 1.0 2.0 0.00 0.00 0.00 40 1015.1
20260510033354 52 226 2.0 2.0 0.00 0.00 0.00 39 1015.2
20260510032850 53 237 2.0 2.0 0.00 0.00 0.00 39 1015.1
20260510032347 53 216 1.0 3.0 0.00 0.00 0.00 38 1015.2
20260510031843 53 239 2.0 2.0 0.00 0.00 0.00 38 1015.1
20260510031338 53 219 2.0 3.0 0.00 0.00 0.00 38 1015.1
20260510030838 53 326 3.0 3.0 0.00 0.00 0.00 37 1014.9
20260510030335 53 236 2.0 2.0 0.00 0.00 0.00 37 1014.7
20260510025832 53 238 3.0 5.0 0.00 0.00 0.00 37 1014.9
20260510025330 53 206 1.0 3.0 0.00 0.00 0.00 37 1014.7
20260510024826 53 201 1.0 3.0 0.00 0.00 0.00 37 1014.5
20260510024323 54 209 2.0 3.0 0.00 0.00 0.00 36 1014.4
20260510023820 53 231 1.0 2.0 0.00 0.00 0.00 37 1014.3
20260510023316 54 216 2.0 3.0 0.00 0.00 0.00 37 1014.3
20260510022813 54 223 2.0 3.0 0.00 0.00 0.00 36 1014.0
20260510022312 54 256 2.0 2.0 0.00 0.00 0.00 36 1014.1
20260510021812 54 223 1.0 3.0 0.00 0.00 0.00 36 1014.0
20260510021310 54 226 2.0 3.0 0.00 0.00 0.00 36 1013.8
20260510020805 55 203 1.0 3.0 0.00 0.00 0.00 35 1013.7
20260510020300 55 342 3.0 6.0 0.00 0.00 0.00 35 1013.3
20260510015756 55 325 3.0 5.0 0.00 0.00 0.00 34 1013.3
20260510015252 55 258 3.0 3.0 0.00 0.00 0.00 35 1013.2
20260510014747 55 269 3.0 5.0 0.00 0.00 0.00 34 1013.0
20260510014245 55 310 3.0 5.0 0.00 0.00 0.00 34 1013.1
20260510013741 56 295 3.0 6.0 0.00 0.00 0.00 34 1012.9
20260510013236 56 328 4.0 5.0 0.00 0.00 0.00 34 1012.9
20260510012731 56 238 2.0 7.0 0.00 0.00 0.00 33 1012.8
20260510012227 56 292 4.0 6.0 0.00 0.00 0.00 33 1012.6
20260510011727 56 333 4.0 6.0 0.00 0.00 0.00 33 1012.5
20260510011222 56 317 5.0 9.0 0.00 0.00 0.00 33 1012.5
20260510010719 57 233 3.0 7.0 0.00 0.00 0.00 33 1012.4
20260510010216 57 314 5.0 9.0 0.00 0.00 0.00 32 1012.3
20260510005712 57 324 3.0 10.0 0.00 0.00 0.00 32 1012.5
20260510005209 57 71 2.0 6.0 0.00 0.00 0.00 32 1012.3
20260510004707 57 342 5.0 6.0 0.00 0.00 0.00 32 1012.2
20260510004205 57 312 6.0 8.0 0.00 0.00 0.00 32 1012.3
20260510003702 58 224 2.0 3.0 0.00 0.00 0.00 32 1012.1
20260510003157 58 278 3.0 8.0 0.00 0.00 0.00 32 1012.1
20260510002652 58 209 3.0 6.0 0.00 0.00 0.00 32 1012.1
20260510002149 58 300 3.0 7.0 0.00 0.00 0.00 31 1011.9
20260510001646 58 337 4.0 10.0 0.00 0.00 0.00 31 1011.9
20260510001144 58 325 7.0 8.0 0.00 0.00 0.00 30 1011.9
20260510000639 58 333 4.0 11.0 0.00 0.00 0.00 30 1011.9
20260510000137 59 328 6.0 8.0 0.00 0.00 0.00 30 1011.7
20260509235633 59 352 5.0 7.0 0.00 0.00 0.00 31 1011.9
20260509235130 58 312 2.0 8.0 0.00 0.00 0.00 31 1011.6
20260509234626 59 332 5.0 9.0 0.00 0.00 0.00 31 1011.5
20260509234124 59 230 2.0 5.0 0.00 0.00 0.00 30 1011.7
20260509233621 59 336 4.0 11.0 0.00 0.00 0.00 30 1011.5
20260509233118 59 212 2.0 6.0 0.00 0.00 0.00 30 1011.5
20260509232614 59 302 4.0 5.0 0.00 0.00 0.00 30 1011.3
20260509232111 59 85 4.0 6.0 0.00 0.00 0.00 31 1011.3
20260509231608 59 331 4.0 11.0 0.00 0.00 0.00 29 1011.4
20260509231106 59 324 4.0 7.0 0.00 0.00 0.00 30 1011.3
20260509230602 59 334 7.0 10.0 0.00 0.00 0.00 30 1011.3
20260509230059 60 281 7.0 8.0 0.00 0.00 0.00 30 1011.0
20260509225555 59 341 6.0 7.0 0.00 0.00 0.00 30 1011.0
20260509225050 60 350 3.0 8.0 0.00 0.00 0.00 31 1011.1
20260509224546 60 261 2.0 5.0 0.00 0.00 0.00 30 1010.9
20260509224043 60 271 3.0 5.0 0.00 0.00 0.00 31 1010.9
20260509223540 60 347 4.0 9.0 0.00 0.00 0.00 29 1010.7
20260509223038 60 69 7.0 11.0 0.00 0.00 0.00 28 1010.7
20260509222533 60 340 4.0 8.0 0.00 0.00 0.00 29 1010.8
20260509222035 60 339 5.0 6.0 0.00 0.00 0.00 30 1010.8
20260509221526 61 345 9.0 10.0 0.00 0.00 0.00 29 1010.7
20260509221022 60 324 6.0 8.0 0.00 0.00 0.00 30 1010.6
20260509220518 61 31 5.0 7.0 0.00 0.00 0.00 29 1010.7
20260509220014 60 343 2.0 8.0 0.00 0.00 0.00 31 1010.5
20260509215509 61 337 6.0 9.0 0.00 0.00 0.00 30 1010.7
20260509215007 61 200 4.0 8.0 0.00 0.00 0.00 30 1010.7
20260509214504 61 305 5.0 7.0 0.00 0.00 0.00 29 1010.6
20260509214001 62 354 5.0 8.0 0.00 0.00 0.00 29 1010.5
20260509213457 60 347 4.0 8.0 0.00 0.00 0.00 30 1010.6
20260509212954 60 333 4.0 6.0 0.00 0.00 0.00 30 1010.3
20260509212451 59 330 5.0 14.0 0.00 0.00 0.00 30 1010.4
20260509211948 60 269 1.0 6.0 0.00 0.00 0.00 31 1010.4
20260509211443 60 80 5.0 9.0 0.00 0.00 0.00 31 1010.6
20260509210940 60 343 6.0 10.0 0.00 0.00 0.00 30 1010.5
20260509210437 61 325 3.0 8.0 0.00 0.00 0.00 29 1010.3
20260509205933 60 217 3.0 6.0 0.00 0.00 0.00 30 1010.3
20260509205427 61 46 5.0 9.0 0.00 0.00 0.00 30 1010.4
20260509204923 61 331 5.0 7.0 0.00 0.00 0.00 29 1010.4
20260509204420 61 228 2.0 7.0 0.00 0.00 0.00 29 1010.2
20260509203917 61 330 6.0 8.0 0.00 0.00 0.00 28 1010.2
20260509203413 60 320 5.0 10.0 0.00 0.00 0.00 28 1010.1
20260509202910 60 332 9.0 14.0 0.00 0.00 0.00 27 1010.3
20260509202406 60 319 5.0 11.0 0.00 0.00 0.00 31 1010.0
20260509201901 60 343 8.0 15.0 0.00 0.00 0.00 30 1010.0
20260509201356 60 50 3.0 6.0 0.00 0.00 0.00 31 1010.1
20260509200854 60 83 4.0 8.0 0.00 0.00 0.00 30 1009.9
20260509200348 59 28 2.0 8.0 0.00 0.00 0.00 31 1010.0
20260509195845 59 347 6.0 10.0 0.00 0.00 0.00 32 1010.1
20260509195340 59 330 7.0 11.0 0.00 0.00 0.00 31 1010.0
20260509194839 60 208 3.0 8.0 0.00 0.00 0.00 32 1010.2
20260509194336 60 354 9.0 10.0 0.00 0.00 0.00 31 1009.8
20260509193832 59 349 4.0 11.0 0.00 0.00 0.00 32 1009.9
20260509193327 59 347 7.0 10.0 0.00 0.00 0.00 31 1009.9
20260509192823 60 337 7.0 10.0 0.00 0.00 0.00 30 1009.7
20260509192319 60 53 6.0 9.0 0.00 0.00 0.00 32 1009.7
20260509191814 60 348 7.0 11.0 0.00 0.00 0.00 32 1009.7
20260509191311 59 244 3.0 7.0 0.00 0.00 0.00 34 1009.5
20260509190806 60 357 8.0 11.0 0.00 0.00 0.00 33 1009.8
20260509190304 59 121 2.0 8.0 0.00 0.00 0.00 37 1009.5
20260509185801 59 289 6.0 10.0 0.00 0.00 0.00 34 1009.5
20260509185257 59 341 7.0 11.0 0.00 0.00 0.00 33 1009.4
20260509184755 59 322 7.0 13.0 0.00 0.00 0.00 34 1009.5
20260509184252 60 329 5.0 7.0 0.00 0.00 0.00 32 1009.3
20260509183748 59 3 3.0 8.0 0.00 0.00 0.00 36 1009.3
20260509183244 58 291 6.0 8.0 0.00 0.00 0.00 36 1009.4
20260509182739 58 323 4.0 8.0 0.00 0.00 0.00 37 1009.4
20260509182237 58 39 6.0 13.0 0.00 0.00 0.00 35 1009.2
20260509181734 58 348 7.0 9.0 0.00 0.00 0.00 35 1009.2
20260509181232 58 307 8.0 9.0 0.00 0.00 0.00 35 1009.1
20260509180729 58 349 4.0 14.0 0.00 0.00 0.00 37 1009.2
20260509180225 57 249 5.0 9.0 0.00 0.00 0.00 37 1009.0
20260509175721 57 346 6.0 11.0 0.00 0.00 0.00 37 1009.2
20260509175218 57 341 8.0 13.0 0.00 0.00 0.00 38 1009.2
20260509174714 58 331 5.0 9.0 0.00 0.00 0.00 37 1009.1
20260509174209 57 305 5.0 8.0 0.00 0.00 0.00 39 1009.0
20260509173706 57 9 4.0 8.0 0.00 0.00 0.00 38 1009.0
20260509173201 57 270 2.0 8.0 0.00 0.00 0.00 39 1009.1
20260509172658 57 327 9.0 10.0 0.00 0.00 0.00 40 1009.1
20260509172154 56 350 6.0 14.0 0.00 0.00 0.00 41 1008.9
20260509171649 57 325 5.0 13.0 0.00 0.00 0.00 40 1009.0
20260509171146 58 50 6.0 8.0 0.00 0.00 0.00 40 1008.8
20260509170643 57 342 5.0 8.0 0.00 0.00 0.00 40 1008.8
20260509170139 57 275 7.0 16.0 0.00 0.00 0.00 38 1008.7
20260509165637 57 229 6.0 10.0 0.00 0.00 0.00 38 1008.8
20260509165133 57 311 5.0 10.0 0.00 0.00 0.00 40 1008.7
20260509164629 57 121 5.0 11.0 0.00 0.00 0.00 38 1008.7
20260509164125 58 320 9.0 13.0 0.00 0.00 0.00 36 1008.5
20260509163623 57 352 7.0 14.0 0.00 0.00 0.00 37 1008.6
20260509163118 57 248 4.0 11.0 0.00 0.00 0.00 41 1008.4
20260509162616 57 332 5.0 13.0 0.00 0.00 0.00 39 1008.6
20260509162112 57 323 3.0 11.0 0.00 0.00 0.00 40 1008.4
20260509161608 57 311 7.0 9.0 0.00 0.00 0.00 39 1008.4
20260509161109 57 22 3.0 11.0 0.00 0.00 0.00 40 1008.3
20260509160605 58 324 5.0 8.0 0.00 0.00 0.00 40 1008.2
20260509160100 57 306 5.0 13.0 0.00 0.00 0.00 42 1008.0
20260509155557 57 341 7.0 14.0 0.00 0.00 0.00 42 1008.1
20260509155053 57 354 6.0 10.0 0.00 0.00 0.00 43 1008.1
20260509154549 56 345 9.0 10.0 0.00 0.00 0.00 43 1008.1
20260509154047 56 305 3.0 9.0 0.00 0.00 0.00 43 1007.9
20260509153544 57 192 1.0 5.0 0.00 0.00 0.00 46 1007.6
20260509153040 56 331 4.0 10.0 0.00 0.00 0.00 45 1007.7
20260509152536 56 336 5.0 8.0 0.00 0.00 0.00 46 1007.9
20260509152034 56 335 5.0 10.0 0.00 0.00 0.00 46 1007.6
20260509151529 56 327 6.0 8.0 0.00 0.00 0.00 47 1007.6
20260509151027 55 329 5.0 7.0 0.00 0.00 0.00 47 1007.3
20260509150525 55 323 3.0 9.0 0.00 0.00 0.00 49 1007.5
20260509150023 54 341 5.0 9.0 0.00 0.00 0.00 51 1007.5
20260509145518 55 323 5.0 7.0 0.00 0.00 0.00 50 1007.4
20260509145013 55 192 3.0 6.0 0.00 0.00 0.00 54 1007.4
20260509144511 55 91 3.0 7.0 0.00 0.00 0.00 54 1007.4
20260509144008 54 150 2.0 8.0 0.00 0.00 0.00 55 1007.3
20260509143505 53 44 8.0 11.0 0.00 0.00 0.00 54 1007.2
20260509143004 52 344 5.0 8.0 0.00 0.00 0.00 57 1007.3
20260509142458 52 1 5.0 11.0 0.00 0.00 0.00 58 1007.2
20260509141954 53 309 6.0 10.0 0.00 0.00 0.00 58 1007.0
20260509141450 53 335 8.0 10.0 0.00 0.00 0.00 61 1007.1
20260509140948 52 321 7.0 9.0 0.00 0.00 0.00 64 1006.8
20260509140443 52 331 7.0 10.0 0.00 0.00 0.00 64 1006.7
20260509135942 53 326 6.0 7.0 0.00 0.00 0.00 66 1006.6
20260509135439 53 61 3.0 11.0 0.00 0.00 0.00 68 1006.3
20260509134936 52 343 4.0 7.0 0.00 0.00 0.00 70 1006.3
20260509134434 53 339 4.0 5.0 0.00 0.00 0.00 70 1006.4
20260509133931 52 31 3.0 7.0 0.00 0.00 0.00 71 1006.3
20260509133427 51 346 6.0 9.0 0.00 0.00 0.00 71 1006.3
20260509132926 51 27 5.0 6.0 0.00 0.00 0.00 71 1006.3
20260509132423 51 302 3.0 7.0 0.00 0.00 0.00 70 1006.3
20260509131920 52 13 2.0 6.0 0.00 0.00 0.00 70 1006.2
20260509131418 52 253 3.0 7.0 0.00 0.00 0.00 70 1005.8
20260509130914 53 333 4.0 6.0 0.00 0.00 0.00 69 1005.7
20260509130409 53 151 2.0 5.0 0.00 0.00 0.00 70 1005.8
20260509125907 52 203 2.0 3.0 0.00 0.00 0.00 72 1005.7
20260509125403 52 80 3.0 5.0 0.00 0.00 0.00 73 1005.7
20260509124859 51 325 3.0 10.0 0.00 0.00 0.00 73 1005.3
20260509124356 51 359 6.0 8.0 0.00 0.00 0.00 73 1005.4
20260509123854 51 330 4.0 5.0 0.00 0.00 0.00 73 1005.3
20260509123351 51 337 7.0 8.0 0.00 0.00 0.00 72 1005.4
20260509122847 51 340 5.0 10.0 0.00 0.00 0.00 73 1005.3
20260509122344 52 332 7.0 11.0 0.00 0.00 0.00 73 1005.3
20260509121841 52 317 5.0 8.0 0.00 0.00 0.00 74 1005.0
20260509121338 52 312 5.0 8.0 0.00 0.00 0.00 74 1004.9
20260509120836 52 340 6.0 10.0 0.00 0.00 0.00 74 1004.8
20260509120333 52 1 5.0 8.0 0.00 0.00 0.00 74 1004.8
20260509115831 52 301 3.0 7.0 0.00 0.00 0.00 74 1004.5
20260509115328 52 279 3.0 5.0 0.00 0.00 0.00 73 1004.3